SCP
0 0 0 0 0 0 0 0 0 0 0 0 0 0 0 0 0 0 0 0 0 0
0 0 0 0 0 0 0 0 0 0 0 0 0 0 0 0 0 0 0 0 0 0
0 0 0 0 0 0 0 0 0 0 0 0 0 0 0 0 0 0 0 0 0 0
0 0 0 0 0 0 0 0 0 0 0 0 0 0 0 0 0 0 0 0 0 0
0 0 0 0 0 0 0 0 0 0 0 0 0 0 0 0 0 0 0 0 0 0
0 0 0 0 0 0 0 0 0 0 0 0 0 0 0 0 0 0 0 0 0 0
0 0 0 0 0 0 0 0 0 0 0 0 0 0 0 0 0 0 0 0 0 0
0 0 0 0 0 0 0 0 0 0 0 0 0 0 0 0 0 0 0 0 0 0
0 0 0 0 0 0 0 0 0 0 0 0 0 0 0 0 0 0 0 0 0 0
0 0 0 0 0 0 0 0 0 0 0 0 0 0 0 0 0 0 0 0 0 0
0 0 0 0 0 0 0 0 0 0 0 0 0 0 0 0 0 0 0 0 0 0
0 0 0 0 0 0 0 0 0 0 0 0 0 0 0 0 0 0 0 0 0 0
0 0 0 0 0 0 0 0 0 0 0 0 0 0 0 0 0 0 0 0 0 0
0 0 0 0 0 0 0 0 0 0 0 0 0 0 0 0 0 0 0 0 0 0
Wind_Speed_500mb
54 52 47 45 45 45 46 48 48 47 48 49 44 43 43 41 41 42 43 44 44 46
48 48 47 43 38 37 38 39 41 40 37 33 33 35 35 35 35 38 40 41 45 43
33 35 35 32 31 31 32 29 30 27 26 25 24 26 27 27 30 34 38 40 41 41
30 29 28 27 26 25 23 22 21 20 20 21 22 23 23 23 25 26 28 29 31 32
27 25 23 21 19 17 16 15 15 16 16 16 16 17 18 19 20 21 23 24 25 27
23 21 18 16 14 12 11 10 9 9 10 10 11 12 14 16 18 19 20 21 22 23
18 17 14 12 10 7 6 4 4 5 7 9 10 12 13 14 16 17 18 21 23 25
15 13 11 9 6 4 2 3 5 7 10 11 12 12 13 14 16 17 19 20 23 23
8 6 4 1 1 3 5 7 9 11 14 17 17 16 17 18 20 20 20 21 23 25
4 4 5 6 8 9 10 11 13 15 17 19 21 21 20 20 20 20 19 19 20 21
4 6 8 10 13 14 15 16 16 17 17 18 18 19 18 18 18 19 18 17 15 15
10 12 14 15 15 16 16 18 19 20 19 19 19 18 15 14 15 16 16 14 13 13
12 13 14 15 15 16 16 17 17 17 16 17 18 18 17 14 13 13 13 13 13 13
14 14 14 14 14 14 14 14 14 13 13 13 12 12 11 12 11 11 12 13 15 16
Wind_Direction_500mb
218 221 221 224 232 224 237 245 248 247 245 251 246 246 250 253 257 258 259 261 263 266
212 214 219 226 228 223 229 230 233 237 243 245 246 250 253 254 253 257 259 263 265 266
196 202 210 211 219 227 227 229 231 232 232 235 243 250 255 256 254 256 260 262 268 268
182 187 185 189 194 198 201 204 209 218 229 236 240 245 251 255 259 262 262 262 263 264
149 154 160 167 175 183 195 205 214 222 232 242 252 257 262 264 265 268 268 271 274 276
141 145 150 157 164 174 184 197 209 223 237 254 266 276 280 281 280 280 281 282 282 284
129 131 135 139 146 155 168 191 225 253 268 274 280 284 285 285 288 292 294 296 298 299
118 118 120 123 131 144 190 254 269 275 278 283 287 291 289 288 288 289 290 292 295 297
113 108 105 109 243 255 270 277 281 285 289 292 294 296 295 294 292 292 291 296 300 302
216 234 244 255 260 265 271 277 281 285 288 293 300 303 304 303 299 297 297 298 299 305
281 290 295 290 287 285 280 275 276 277 280 285 294 298 302 300 302 301 301 304 308 310
285 285 288 288 287 285 285 288 288 289 290 291 296 305 304 298 300 302 301 302 303 306
272 275 276 278 279 281 282 282 283 286 290 293 296 302 306 302 300 302 307 310 312 309
259 264 268 269 270 269 266 264 264 266 271 273 281 292 300 298 310 311 309 304 307 307
Wind_Speed_850mb
54 52 47 45 45 45 46 48 48 47 48 49 44 43 43 41 41 42 43 44 44 46
48 48 47 43 38 37 38 39 41 40 37 33 33 35 35 35 35 38 40 41 45 43
33 35 35 32 31 31 32 29 30 27 26 25 24 26 27 27 30 34 38 40 41 41
30 29 28 27 26 25 23 22 21 20 20 21 22 23 23 23 25 26 28 29 31 32
27 25 23 21 19 17 16 15 15 16 16 16 16 17 18 19 20 21 23 24 25 27
23 21 18 16 14 12 11 10 9 9 10 10 11 12 14 16 18 19 20 21 22 23
18 17 14 12 10 7 6 4 4 5 7 9 10 12 13 14 16 17 18 21 23 25
15 13 11 9 6 4 2 3 5 7 10 11 12 12 13 14 16 17 19 20 23 23
8 6 4 1 1 3 5 7 9 11 14 17 17 16 17 18 20 20 20 21 23 25
4 4 5 6 8 9 10 11 13 15 17 19 21 21 20 20 20 20 19 19 20 21
4 6 8 10 13 14 15 16 16 17 17 18 18 19 18 18 18 19 18 17 15 15
10 12 14 15 15 16 16 18 19 20 19 19 19 18 15 14 15 16 16 14 13 13
12 13 14 15 15 16 16 17 17 17 16 17 18 18 17 14 13 13 13 13 13 13
14 14 14 14 14 14 14 14 14 13 13 13 12 12 11 12 11 11 12 13 15 16
Wind_Direction_850mb
218 221 221 224 232 224 237 245 248 247 245 251 246 246 250 253 257 258 259 261 263 266
212 214 219 226 228 223 229 230 233 237 243 245 246 250 253 254 253 257 259 263 265 266
196 202 210 211 219 227 227 229 231 232 232 235 243 250 255 256 254 256 260 262 268 268
182 187 185 189 194 198 201 204 209 218 229 236 240 245 251 255 259 262 262 262 263 264
149 154 160 167 175 183 195 205 214 222 232 242 252 257 262 264 265 268 268 271 274 276
141 145 150 157 164 174 184 197 209 223 237 254 266 276 280 281 280 280 281 282 282 284
129 131 135 139 146 155 168 191 225 253 268 274 280 284 285 285 288 292 294 296 298 299
118 118 120 123 131 144 190 254 269 275 278 283 287 291 289 288 288 289 290 292 295 297
113 108 105 109 243 255 270 277 281 285 289 292 294 296 295 294 292 292 291 296 300 302
216 234 244 255 260 265 271 277 281 285 288 293 300 303 304 303 299 297 297 298 299 305
281 290 295 290 287 285 280 275 276 277 280 285 294 298 302 300 302 301 301 304 308 310
285 285 288 288 287 285 285 288 288 289 290 291 296 305 304 298 300 302 301 302 303 306
272 275 276 278 279 281 282 282 283 286 290 293 296 302 306 302 300 302 307 310 312 309
259 264 268 269 270 269 266 264 264 266 271 273 281 292 300 298 310 311 309 304 307 307